Total_Precipitation_Accumulation
0.00 0.00 0.01 0.01 0.02 0.02 0.04 0.06 0.09 0.12 0.10 0.12 0.23 0.50 0.74 0.84 1.11 1.10 1.13 1.28 1.42 1.55 1.84 2.22 2.51 3.09 3.71 4.09 4.46 4.59 4.55 4.40 4.18 3.75 3.41 3.16 2.93 2.76 2.50 2.32 2.22 2.09 1.99 2.09
0.01 0.03 0.02 0.01 0.02 0.02 0.04 0.07 0.10 0.14 0.13 0.17 0.33 0.54 0.82 0.85 0.93 1.01 0.94 0.98 1.16 1.52 1.76 2.25 2.50 2.71 3.22 3.75 4.19 4.47 4.59 4.45 4.06 3.62 3.35 3.19 3.13 2.78 2.49 2.43 2.43 2.23 2.24 2.22
0.01 0.02 0.02 0.01 0.02 0.04 0.06 0.07 0.10 0.10 0.12 0.24 0.35 0.73 0.99 0.88 0.86 0.90 0.92 0.98 1.15 1.61 2.04 2.28 2.42 2.56 2.82 3.27 3.58 3.70 3.84 3.78 3.59 3.57 3.52 3.40 3.34 2.91 2.72 2.69 2.66 2.47 2.44 2.36
0.01 0.01 0.02 0.03 0.04 0.04 0.08 0.06 0.06 0.07 0.14 0.34 0.38 0.83 1.26 1.09 0.94 1.01 1.09 1.06 1.34 1.66 1.69 1.79 2.07 2.38 2.61 2.84 3.15 3.38 3.43 3.36 3.24 3.30 3.28 3.13 2.92 2.73 2.78 2.98 2.92 2.63 2.40 2.18
0.03 0.03 0.03 0.04 0.04 0.04 0.06 0.05 0.06 0.09 0.16 0.32 0.40 0.61 1.11 1.14 1.18 1.09 1.11 1.24 1.46 1.45 1.43 1.52 1.72 2.03 2.16 2.44 2.69 2.96 3.22 3.28 3.19 3.20 3.12 3.09 2.94 2.88 2.89 2.80 2.69 2.42 2.17 1.87
0.04 0.04 0.04 0.03 0.03 0.04 0.05 0.06 0.12 0.18 0.31 0.65 0.52 0.52 0.96 1.12 1.01 0.93 1.00 1.05 1.23 1.24 1.26 1.43 1.61 1.84 1.94 2.06 2.18 2.30 2.53 2.78 2.90 2.89 2.84 2.83 2.74 2.70 2.60 2.39 2.20 1.97 1.78 1.53
0.09 0.10 0.08 0.05 0.05 0.06 0.06 0.09 0.39 0.74 0.98 1.03 0.56 0.60 1.05 0.92 0.73 0.74 0.90 0.92 0.87 0.92 0.97 1.19 1.32 1.42 1.54 1.65 1.73 1.84 2.05 2.36 2.44 2.39 2.39 2.47 2.44 2.41 2.29 2.21 2.05 1.83 1.56 1.27
0.16 0.21 0.12 0.07 0.07 0.07 0.08 0.09 0.34 0.62 0.75 0.82 0.67 1.01 1.45 0.97 0.75 0.79 0.82 0.80 0.75 0.75 0.74 0.88 1.08 1.28 1.34 1.37 1.46 1.57 1.81 1.99 2.05 1.95 2.06 2.20 2.19 2.25 2.15 2.18 1.99 1.68 1.42 1.29
0.11 0.11 0.07 0.07 0.10 0.10 0.09 0.08 0.14 0.28 0.37 0.59 0.83 1.13 1.17 0.72 0.63 0.72 0.74 0.72 0.76 0.76 0.72 0.77 0.83 0.98 1.04 1.07 1.15 1.27 1.61 1.82 1.88 1.85 1.95 2.03 2.08 2.07 1.98 1.89 1.73 1.48 1.42 1.35
0.04 0.06 0.08 0.07 0.08 0.10 0.10 0.11 0.16 0.22 0.35 0.58 0.79 1.09 1.24 0.86 0.70 0.52 0.47 0.50 0.47 0.48 0.52 0.56 0.55 0.62 0.74 0.90 1.08 1.23 1.34 1.54 1.71 1.74 1.77 1.79 1.90 1.84 1.74 1.68 1.51 1.32 1.22 1.25
0.04 0.04 0.07 0.08 0.11 0.13 0.13 0.11 0.13 0.17 0.21 0.40 0.79 1.02 0.82 0.68 0.57 0.53 0.47 0.50 0.45 0.39 0.40 0.44 0.50 0.55 0.69 0.81 0.97 1.14 1.19 1.33 1.46 1.53 1.63 1.63 1.60 1.63 1.64 1.52 1.34 1.27 1.25 1.24
0.04 0.04 0.06 0.13 0.18 0.16 0.14 0.11 0.13 0.17 0.17 0.24 0.43 0.64 0.51 0.57 0.57 0.50 0.50 0.56 0.58 0.53 0.47 0.48 0.57 0.62 0.71 0.80 0.85 0.92 1.00 1.11 1.26 1.43 1.62 1.70 1.66 1.67 1.62 1.45 1.29 1.24 1.26 1.30
0.05 0.05 0.11 0.28 0.40 0.26 0.16 0.12 0.12 0.14 0.11 0.19 0.39 0.62 0.42 0.36 0.45 0.60 0.82 1.00 0.81 0.62 0.53 0.55 0.60 0.58 0.64 0.73 0.81 0.76 0.81 0.95 1.12 1.37 1.71 1.88 1.85 1.77 1.67 1.49 1.29 1.21 1.23 1.30
0.08 0.06 0.10 0.30 0.42 0.36 0.26 0.17 0.13 0.11 0.13 0.17 0.25 0.50 0.45 0.41 0.46 0.60 0.75 0.72 0.73 0.66 0.59 0.65 0.61 0.67 0.70 0.69 0.77 0.77 0.82 0.88 1.04 1.24 1.48 1.59 1.50 1.45 1.41 1.33 1.22 1.15 1.16 1.23
0.12 0.08 0.07 0.12 0.21 0.24 0.24 0.22 0.18 0.14 0.12 0.21 0.25 0.36 0.43 0.43 0.55 0.68 0.80 0.80 0.78 0.65 0.54 0.54 0.51 0.57 0.64 0.67 0.75 0.71 0.68 0.69 0.81 0.99 1.09 1.20 1.20 1.17 1.14 1.15 1.15 1.13 1.22 1.25
0.18 0.18 0.14 0.16 0.19 0.24 0.27 0.25 0.18 0.13 0.11 0.16 0.24 0.37 0.48 0.54 0.62 0.67 0.61 0.55 0.53 0.47 0.36 0.35 0.45 0.52 0.52 0.53 0.58 0.53 0.57 0.67 0.78 0.87 0.97 1.11 1.21 1.20 1.14 1.12 1.14 1.12 1.19 1.25
0.23 0.27 0.25 0.24 0.24 0.24 0.34 0.33 0.24 0.15 0.14 0.20 0.32 0.47 0.61 0.52 0.51 0.57 0.53 0.52 0.51 0.47 0.31 0.26 0.31 0.39 0.42 0.45 0.48 0.58 0.69 0.78 0.87 0.95 1.01 1.13 1.22 1.26 1.24 1.17 1.22 1.23 1.29 1.36
0.39 0.40 0.33 0.30 0.41 0.50 0.37 0.30 0.29 0.28 0.26 0.27 0.40 0.41 0.52 0.52 0.58 0.67 0.63 0.58 0.46 0.40 0.32 0.25 0.25 0.29 0.36 0.44 0.53 0.67 0.89 1.01 1.02 1.06 1.11 1.24 1.33 1.31 1.32 1.33 1.39 1.49 1.56 1.58
0.33 0.49 0.47 0.46 0.58 0.50 0.44 0.32 0.36 0.40 0.53 0.54 0.62 0.58 0.51 0.51 0.58 0.65 0.56 0.48 0.46 0.38 0.35 0.33 0.30 0.38 0.46 0.51 0.56 0.74 0.93 1.12 1.18 1.15 1.19 1.32 1.41 1.45 1.51 1.57 1.58 1.63 1.70 1.66
0.34 0.49 0.61 0.58 0.72 0.71 0.60 0.47 0.46 0.57 0.98 0.81 0.74 0.74 0.61 0.59 0.69 0.72 0.65 0.56 0.51 0.44 0.43 0.43 0.42 0.50 0.61 0.66 0.73 0.87 0.98 1.09 1.23 1.29 1.40 1.55 1.71 1.74 1.79 1.94 2.01 1.93 1.86 1.74
0.61 0.70 0.73 0.73 0.78 0.84 0.72 0.66 0.68 1.05 1.31 0.99 0.84 0.81 0.76 0.84 0.86 0.80 0.71 0.68 0.62 0.53 0.52 0.49 0.50 0.59 0.73 0.84 0.93 1.05 1.19 1.28 1.26 1.33 1.48 1.70 1.85 1.93 2.00 2.13 2.21 2.20 2.18 2.15
0.78 0.86 0.85 0.86 1.03 1.19 0.83 0.79 1.16 1.39 1.16 1.16 1.13 1.05 0.93 0.88 0.84 0.78 0.70 0.68 0.63 0.59 0.63 0.62 0.63 0.76 0.90 1.02 1.05 1.14 1.22 1.25 1.29 1.33 1.45 1.58 1.72 1.76 1.84 2.06 2.16 2.24 2.27 2.24
0.82 0.93 1.00 1.11 1.23 1.13 0.91 0.97 1.14 1.25 1.39 1.32 1.23 1.21 1.05 0.98 0.89 0.78 0.69 0.64 0.60 0.57 0.62 0.65 0.70 0.89 1.07 1.19 1.23 1.29 1.22 1.29 1.34 1.40 1.53 1.65 1.74 1.81 1.90 1.95 1.94 2.03 2.11 2.11
0.93 0.83 1.02 1.24 1.28 1.18 1.02 0.89 0.84 0.98 1.10 1.07 1.03 1.05 1.03 1.00 0.92 0.81 0.68 0.57 0.55 0.54 0.50 0.54 0.65 0.75 0.86 0.96 1.06 1.19 1.28 1.36 1.42 1.49 1.54 1.61 1.73 1.76 1.79 1.90 1.98 2.04 2.15 2.24
1.09 0.95 1.17 1.45 1.32 1.14 1.20 1.12 1.00 1.05 1.13 1.06 0.98 0.93 0.93 0.91 0.87 0.73 0.66 0.59 0.53 0.51 0.50 0.53 0.63 0.67 0.74 0.81 0.88 0.98 1.08 1.21 1.30 1.37 1.43 1.49 1.53 1.61 1.68 1.73 1.81 1.82 1.90 1.89
1.11 1.12 1.38 1.65 1.44 1.31 1.30 1.17 1.05 1.10 1.08 1.11 1.12 1.09 0.90 0.80 0.84 0.77 0.69 0.60 0.58 0.57 0.56 0.59 0.62 0.63 0.67 0.72 0.85 0.96 1.06 1.20 1.34 1.44 1.46 1.41 1.39 1.45 1.50 1.53 1.52 1.49 1.42 1.39